This demonstration page uses our WeatherBlox Daily Observations layout. Learn more.

Left ArrowRight Arrow

Hourly Observations for March 13, 2018

Temp ( °F °C ) Dew Point ( °F °C ) Humidity (%) Winds ( mph kmh ) Pressure ( in mb ) Visibility ( mi km ) Precip ( " mm )
12:53 am 00:53 Clear 29 -1.7 19 -7.2 66 66 NE 7 11 30.40 1030 10 16 0.00 0.00
1:53 am 01:53 Clear 27 -2.8 19 -7.2 72 72 NNE 5 7 30.41 1030 10 16 0.00 0.00
2:53 am 02:53 Clear 25 -3.9 19 -7.2 78 78 N 6 9 30.42 1030 10 16 0.00 0.00
3:53 am 03:53 Clear 22 -5.6 18 -7.8 85 85 NNE 6 9 30.42 1030 10 16 0.00 0.00
4:53 am 04:53 Clear 23 -5 19 -7.2 85 85 N 8 13 30.42 1030 10 16 0.00 0.00
5:53 am 05:53 Clear 21 -6.1 17 -8.3 85 85 NNW 5 7 30.45 1031 10 16 0.00 0.00
6:53 am 06:53 Clear 19 -7.2 16 -8.9 88 88 WNW 5 7 30.48 1032 9 14 0.00 0.00
7:53 am 07:53 Sunny 19 -7.2 16 -8.9 88 88 NW 8 13 30.51 1033 8 13 0.00 0.00
8:53 am 08:53 Sunny 26 -3.3 21 -6.1 81 81 NW 9 15 30.51 1033 10 16 0.00 0.00
9:53 am 09:53 Sunny 31 -0.6 21 -6.1 67 67 N 10 17 30.52 1033 10 16 0.00 0.00
10:53 am 10:53 Sunny 36 2.2 13 -10.6 39 39 N 8 13 30.50 1033 10 16 0.00 0.00
11:53 am 11:53 Sunny 41 5 8 -13.3 25 25 N 6 9 30.49 1032 10 16 0.00 0.00
12:53 pm 12:53 Sunny 44 6.7 1 -17.2 16 16 NNE 9 15 30.47 1032 10 16 0.00 0.00
1:53 pm 13:53 Sunny 46 7.8 0 -17.8 14 14 N 8 13 30.45 1031 10 16 0.00 0.00
2:53 pm 14:53 Sunny 48 8.9 -2 -18.9 12 12 Calm 30.42 1030 10 16 0.00 0.00
3:53 pm 15:53 Sunny 49 9.4 -2 -18.9 12 12 VRB 5 7 30.41 1030 10 16 0.00 0.00
4:53 pm 16:53 Sunny 50 10 -1 -18.3 12 12 NW 7 11 30.39 1029 10 16 0.00 0.00
5:53 pm 17:53 Sunny 50 10 -2 -18.9 11 11 VRB 3 6 30.37 1029 10 16 0.00 0.00
6:53 pm 18:53 Sunny 49 9.4 -3 -19.4 11 11 Calm 30.37 1029 10 16 0.00 0.00
7:53 pm 19:53 Hazy 42 5.6 0 -17.8 17 17 Calm 30.37 1029 6 10 0.00 0.00
8:53 pm 20:53 Clear 38 3.3 4 -15.6 24 24 Calm 30.36 1028 10 16 0.00 0.00
9:53 pm 21:53 Clear 33 0.6 5 -15 30 30 Calm 30.35 1028 9 14 0.00 0.00
10:53 pm 22:53 Clear 36 2.2 4 -15.6 26 26 SSE 6 9 30.33 1027 10 16 0.00 0.00
11:53 pm 23:53 Clear 35 1.7 3 -16.1 26 26 S 5 7 30.32 1027 10 16 0.00 0.00

Powered by AerisWeather